Weather History for Dayton, OH

Change the Weather History Date:

Sunday, March 30, 2014

  Actual Average Record
Temperature  
Mean Temperature 41 °F 46 °F  
Max Temperature 52 °F 55 °F 83 °F (1910)
Min Temperature 29 °F 36 °F 18 °F (1964)
Degree Days  
Heating Degree Days 24 19  
Month to date heating degree days 861 745  
Since 1 July heating degree days 5460 5020  
Cooling Degree Days 0 0  
Month to date cooling degree days 0 0  
Year to date cooling degree days 0 0  
Moisture  
Dew Point 27 °F    
Average Humidity 62    
Maximum Humidity 82    
Minimum Humidity 41    
Precipitation  
Precipitation 0.00 in 0.13 in 1.41 in (1938)
Month to date precipitation 2.62 3.21  
Year to date precipitation 7.60 8.16  
Snow  
Snow 0.00 in 0.00 in 7.90 in (1987)
Month to date snowfall 7.1 3.3  
Since 1 July snowfall 52.5 22.6  
Snow Depth 0.00 in    
Sea Level Pressure  
Sea Level Pressure 30.18 in    
Wind  
Wind Speed 8 mph (NNW)    
Max Wind Speed 18 mph    
Max Gust Speed 24 mph    
Visibility 10 miles    
Events      
T = Trace of Precipitation, MM = Missing Value Source: NWS Daily Summary

Daily Weather History Graph

Daily Weather History Graph

Search for Another Location

Airport:

Trip Planner

Search our weather history database for the weather conditions in past years. The results will help you decide how hot, cold, wet, or windy it might be!

Date:

Astronomy

Mar. 30, 2014 Rise Set
Actual Time 7:24 AM EDT 7:59 PM EDT
Civil Twilight 6:56 AM EDT 8:26 PM EDT
Nautical Twilight 6:24 AM EDT 8:58 PM EDT
Astronomical Twilight 5:51 AM EDT 9:31 PM EDT
Moon 7:09 AM EDT (3/30) 8:10 PM EDT (3/30)
Length of Visible Light 13h 29m
Length of Day
12h 34m
Waning Crescent, 0% of the Moon is Illuminated
Mar 30
Waning Crescent
Mar 30
New
Apr 7
First Quarter
Apr 15
Full
Apr 22
Last Quarter

Hourly Weather History & Observations

Time (EDT) Temp. Windchill Dew Point Humidity Pressure Visibility Wind Dir Wind Speed Gust Speed Precip Events Conditions
12:56 AM 34.0 °F 24.2 °F 28.0 °F 79% 30.15 in 9.0 mi NNW 15.0 mph - N/A   Overcast
1:56 AM 33.1 °F 23.9 °F 28.0 °F 82% 30.15 in 9.0 mi North 12.7 mph - N/A   Overcast
2:56 AM 32.0 °F 21.2 °F 26.1 °F 79% 30.16 in 10.0 mi North 16.1 mph - N/A   Overcast
3:56 AM 32.0 °F 21.2 °F 25.0 °F 75% 30.16 in 9.0 mi North 16.1 mph - N/A   Overcast
4:56 AM 30.9 °F 20.2 °F 25.0 °F 79% 30.16 in 9.0 mi North 15.0 mph - N/A   Overcast
5:56 AM 30.9 °F 20.7 °F 25.0 °F 79% 30.16 in 10.0 mi North 13.8 mph - N/A   Mostly Cloudy
6:56 AM 30.0 °F 20.0 °F 25.0 °F 82% 30.20 in 10.0 mi North 12.7 mph - N/A   Mostly Cloudy
7:56 AM 30.0 °F 21.1 °F 25.0 °F 82% 30.22 in 8.0 mi North 10.4 mph - N/A   Mostly Cloudy
8:15 AM 28.4 °F 19.7 °F 24.8 °F 86% 30.19 in 8.0 mi NNW 9.2 mph - N/A   Scattered Clouds
8:56 AM 30.9 °F 22.2 °F 25.0 °F 79% 30.22 in 9.0 mi NNW 10.4 mph - N/A   Partly Cloudy
9:56 AM 32.0 °F 23.6 °F 26.1 °F 79% 30.22 in 10.0 mi NNW 10.4 mph - N/A   Partly Cloudy
10:56 AM 35.1 °F 30.1 °F 26.1 °F 70% 30.22 in 10.0 mi North 5.8 mph - N/A   Clear
11:56 AM 37.9 °F 32.1 °F 27.0 °F 65% 30.24 in 10.0 mi NW 8.1 mph 16.1 mph N/A   Clear
12:56 PM 42.1 °F 37.7 °F 28.0 °F 58% 30.24 in 10.0 mi NNW 6.9 mph - N/A   Clear
1:56 PM 45.0 °F 39.7 °F 28.0 °F 52% 30.21 in 10.0 mi NW 10.4 mph - N/A   Clear
2:56 PM 46.9 °F - 27.0 °F 46% 30.19 in 10.0 mi NNW 8.1 mph - N/A   Clear
3:56 PM 48.9 °F - 28.0 °F 44% 30.17 in 10.0 mi NNW 10.4 mph - N/A   Clear
4:56 PM 50.0 °F - 28.0 °F 43% 30.16 in 10.0 mi NW 5.8 mph - N/A   Clear
5:56 PM 51.1 °F - 28.0 °F 41% 30.15 in 10.0 mi WNW 9.2 mph - N/A   Clear
6:56 PM 50.0 °F - 28.0 °F 43% 30.15 in 10.0 mi NW 5.8 mph - N/A   Clear
7:56 PM 46.9 °F - 28.0 °F 48% 30.17 in 10.0 mi NW 4.6 mph - N/A   Partly Cloudy
8:56 PM 45.0 °F - 27.0 °F 49% 30.18 in 10.0 mi Calm Calm - N/A   Partly Cloudy
9:56 PM 43.0 °F - 28.0 °F 56% 30.19 in 10.0 mi Calm Calm - N/A   Partly Cloudy
10:56 PM 42.1 °F - 28.0 °F 58% 30.17 in 10.0 mi Calm Calm - N/A   Partly Cloudy
11:56 PM 42.1 °F - 28.0 °F 58% 30.17 in 10.0 mi Calm Calm - N/A   Partly Cloudy